This is the latest recevied weather packets stored in our database for station/object KY0TEQ-13. If no packets are shown the sender has not sent any weather packets the latest 10 day(s).
| Time | Temp. | Humidity | Pressure | Rain* | Wind** | Luminosity | Snow |
|---|---|---|---|---|---|---|---|
| 1788122529 | 26.11° C | 35% | 1308.4 hPa | 0 mm | - | 531 W/m² | - |
| 1788122225 | 25° C | 36% | 1308.8 hPa | 0 mm | - | 383 W/m² | - |
| 1788121921 | 26.11° C | 35% | 1308.9 hPa | 0 mm | - | 351 W/m² | - |
| 1788121620 | 24.44° C | 37% | 1309 hPa | 0 mm | - | 309 W/m² | - |
| 1788121315 | 24.44° C | 38% | 1309.3 hPa | 0 mm | - | 269 W/m² | - |
| 1788121015 | 25° C | 36% | 1309.1 hPa | 0 mm | - | 242 W/m² | - |
| 1788120710 | 24.44° C | 36% | 1309.3 hPa | 0 mm | - | 464 W/m² | - |
| 1788120406 | 25° C | 37% | 1309.4 hPa | 0 mm | - | 391 W/m² | - |
| 1788120105 | 25° C | 36% | 1309.5 hPa | 0 mm | - | 392 W/m² | - |
| 1788119800 | 25° C | 37% | 1309.4 hPa | 0 mm | - | 714 W/m² | - |
| 1788119498 | 25° C | 37% | 1309.4 hPa | 0 mm | - | 673 W/m² | - |
| 1788119197 | 25° C | 39% | 1309.6 hPa | 0 mm | - | 765 W/m² | - |
| 1788118892 | 25° C | 37% | 1309.6 hPa | 0 mm | - | 599 W/m² | - |
| 1788118587 | 24.44° C | 38% | 1309.9 hPa | 0 mm | - | 470 W/m² | - |
| 1788118287 | 23.33° C | 41% | 1309.9 hPa | 0 mm | - | 628 W/m² | - |
| 1788117983 | 23.89° C | 40% | 1310 hPa | 0 mm | - | 442 W/m² | - |
| 1788117677 | 23.89° C | 41% | 1310.1 hPa | 0 mm | - | 831 W/m² | - |
| 1788117372 | 23.89° C | 41% | 1310.4 hPa | 0 mm | - | 671 W/m² | - |
| 1788117068 | 22.78° C | 41% | 1310.5 hPa | 0 mm | - | 537 W/m² | - |
| 1788116763 | 22.78° C | 43% | 1310.5 hPa | 0 mm | - | 284 W/m² | - |
| 1788116458 | 23.89° C | 42% | 1310.7 hPa | 0 mm | - | 350 W/m² | - |
| 1788116156 | 23.89° C | 40% | 1310.7 hPa | 0 mm | - | 765 W/m² | - |
| 1788115853 | 22.78° C | 44% | 1310.7 hPa | 0 mm | - | 801 W/m² | - |
| 1788115546 | 22.78° C | 43% | 1310.7 hPa | 0 mm | - | 785 W/m² | - |
| 1788115241 | 21.67° C | 45% | 1311 hPa | 0 mm | - | 248 W/m² | - |
* Rain latest hour (hover to see other rain measurements)
** Current wind speed in m/s (hover to see current wind gust speed)